DECAYED
Showing default

W-SERIES 6, 68469 (Decayed)

Orbit data source: Space-Track

W-SERIES 6, 68469 was a payload satellite owned by Varda Space (US) in SSO that was launched on Mon, 30 Mar 2026 UTC via an FALCON 9 launch vehicle from the Air Force Western Test Range (AFWTR). Payload-class satellites include a variety of spacecraft equipped with specific instruments for various scientific and technological missions. These include communications satellites like Starlink; space stations such as the ISS; scientific satellites like the Hubble; Earth observation satellites from companies like Planet Labs, Umbra, and HawkEye 360; GPS; miniature CubeSats for education and research; and military/defense satellites.

Loading next visibility...
Identifier
68469, 2026-067BF
Orbit
Decayed
Country
Flag of USUS
Related business
Manufacturer
Varda Space
Mission
Decayed Commercial Microgravity
Bus & Motor
VW, Unknown motor
Mass
300 kg wet, 55 kg dry
Launch date (UTC)
2026-03-30 (6 months ago)
Launch vehicle
FALCON 9
Launch site
Air Force Western Test Range (AFWTR)
Object type
Payload
Rocket body
Debris
Shape & HBR
Box + Trunc Cone + 2 Pan, 2.3 m
Radar Cross Section
2.380 m², Large (>1 m²)

Expand to show TLE details & history
Last TLE update: 4 months ago

TLE from 4 months ago
0 W-SERIES 6
1 68469U 26067BF  26139.25001157  .00129956  00000-0  22025-2 0  9991
2 68469  97.4511  98.1562 0420430  19.6377 264.4221 14.90385529  4369
Epoch: 2026-05-19T06:00Z
TLE epoch observation values (Epoch: 2026-05-19T06:00:00.999Z)
Latitude
-78.19196°
Longitude
169.70394°
Altitude
665.21 km
Speed
7.501 km/s
True Right ascension
09h 06m 32s
True Declination
-78° 07' 19"
Sunlit
Object was in daylight at epoch
Visualization orbit readout
Latitude
Unknown
Longitude
Unknown
Altitude
Unknown
Speed
Unknown
Apparent Right ascension
Unknown
Apparent Declination
Unknown
Sunlit
N/A
Visualization observer readout
Local Sidereal Time
11:56:29
Azimuth
Unknown
Elevation
Unknown
Doppler factor
Unknown
Orbital elements
Apogee altitude
886.85 km
Perigee altitude
300.614 km
Semi-major axis
6,971.869 km
Eccentricity
0.04204
Inclination
97.4511°
RAAN
98.1562°
Arg. of periapsis
19.6377°
True anomaly
259.65701°
Mean anomaly
264.4221°
Eccentric anomaly
262.03644°
Mean motion
3.72837 °/min
Orbital period
96.56 mins
BSTAR
0.0022025
Loading maneuver chart data...
Computing Atmospheric mass density...
Loading historical data...
Loading historical data...
Loading historical data...
Loading historical data...
Loading historical data...
Loading historical data...
Loading historical data...

Documentation

Showing up to 5 results
|